Weather History for EBBE - November, 2013

Change the Weather History Date:

Thursday, November 7, 2013

  Actual Average Record
Temperature  
Mean Temperature 53 °F -  
Max Temperature 56 °F 43 °F 56 °F (2013)
Min Temperature 50 °F 38 °F 39 °F (1998)
Degree Days  
Heating Degree Days 12    
Growing Degree Days 3 (Base 50)    
Moisture  
Dew Point 52 °F    
Average Humidity 96    
Maximum Humidity 100    
Minimum Humidity 78    
Precipitation  
Precipitation 0.51 in - - ()
Sea Level Pressure  
Sea Level Pressure 29.74 in    
Wind  
Wind Speed 13 mph ()    
Max Wind Speed 23 mph    
Max Gust Speed 34 mph    
Visibility 3.5 miles    
Events Rain    
Averages and records for this station are not official NWS values.
T = Trace of Precipitation, MM = Missing Value Source: Averaged Metar Reports

Daily Weather History Graph

Daily Weather History Graph

Search for Another Location

Airport or City:

Trip Planner

Search our weather history database for the weather conditions in past years. The results will help you decide how hot, cold, wet, or windy it might be!

Date:

Astronomy

Nov. 07, 2013 Rise Set
Actual Time 7:42 AM CET 5:05 PM CET
Civil Twilight 7:07 AM CET 5:40 PM CET
Nautical Twilight 6:28 AM CET 6:20 PM CET
Astronomical Twilight 5:49 AM CET 6:58 PM CET
Moon 11:45 AM CET (11/7) 8:53 PM CET (11/7)
Length of Visible Light 10h 33m
Length of Day
9h 22m
Waxing Crescent, 20% of the Moon is Illuminated
Nov 7
Waxing Crescent
Nov 10
First Quarter
Nov 17
Full
Nov 25
Last Quarter
Dec 3
New

Hourly Weather History & Observations

Time (CET) Temp. Dew Point Humidity Pressure Visibility Wind Dir Wind Speed Gust Speed Precip Events Conditions
12:20 AM 57.2 °F 51.8 °F 82% 29.65 in 6.2 mi WSW 21.9 mph - N/A   Mostly Cloudy
12:25 AM 57.2 °F 51.8 °F 82% 29.65 in 6.2 mi WSW 20.7 mph - N/A   Mostly Cloudy
12:44 AM 57.2 °F 51.8 °F 82% 29.65 in 6.2 mi SW 23.0 mph 34.5 mph N/A   Mostly Cloudy
1:00 AM 57 °F 52 °F 78% 29.67 in 31 mi WSW 20.1 mph - -   Clear
1:25 AM 57.2 °F 51.8 °F 82% 29.65 in 6.2 mi SW 20.7 mph - N/A   Mostly Cloudy
1:45 AM 57.2 °F 51.8 °F 82% 29.68 in 6.2 mi SW 21.9 mph - N/A   Mostly Cloudy
2:25 AM 57.2 °F 53.6 °F 88% 29.65 in 6.2 mi SW 18.4 mph - N/A   Overcast
3:25 AM 57.2 °F 53.6 °F 88% 29.68 in 6.2 mi SW 20.7 mph - N/A   Overcast
4:00 AM 57 °F 53 °F 84% 29.67 in 6 mi SW 22.4 mph - -   Scattered Clouds
4:05 AM 57.2 °F 53.6 °F 88% 29.68 in 6.2 mi SW 21.9 mph - N/A   Mostly Cloudy
4:25 AM 57.2 °F 53.6 °F 88% 29.68 in 6.2 mi SW 21.9 mph - N/A   Overcast
5:09 AM 55.4 °F 53.6 °F 94% 29.68 in - SW 20.7 mph - N/A   Overcast
5:21 AM 55.4 °F 53.6 °F 94% 29.68 in - SW 20.7 mph - N/A   Mostly Cloudy
5:25 AM 55.4 °F 53.6 °F 94% 29.68 in 3.1 mi SW 19.6 mph - N/A   Mostly Cloudy
6:23 AM 55.4 °F 53.6 °F 94% 29.68 in 2.2 mi SW 20.7 mph - N/A   Drizzle
6:25 AM 55.4 °F 53.6 °F 94% 29.68 in 2.2 mi SW 20.7 mph - N/A   Drizzle
6:54 AM 55.4 °F 53.6 °F 94% 29.68 in 2.8 mi SW 19.6 mph - N/A   Light Drizzle
7:00 AM 56 °F 54 °F 93% 29.69 in 3 mi SW 20.1 mph - - Rain Light Drizzle
7:25 AM 55.4 °F 55.4 °F 100% 29.68 in 3.7 mi SW 18.4 mph - N/A   Light Drizzle
8:18 AM 55.4 °F 55.4 °F 100% 29.71 in 2.2 mi SW 18.4 mph - N/A   Light Drizzle
8:25 AM 55.4 °F 53.6 °F 94% 29.71 in 2.5 mi SW 19.6 mph - N/A   Light Drizzle
9:04 AM 55.4 °F 53.6 °F 94% 29.71 in 4.3 mi SW 18.4 mph - N/A   Light Drizzle
9:25 AM 55.4 °F 53.6 °F 94% 29.71 in 4.3 mi SW 18.4 mph - N/A   Light Drizzle
9:48 AM 57.2 °F 55.4 °F 94% 29.71 in 5.0 mi SW 19.6 mph - N/A   Light Drizzle
10:00 AM 56 °F 54 °F 91% 29.74 in 5 mi SW 17.9 mph - - Rain Light Drizzle
10:25 AM 57.2 °F 53.6 °F 88% 29.74 in 5.0 mi SW 16.1 mph - N/A   Light Drizzle
10:42 AM 57.2 °F 55.4 °F 94% 29.74 in 2.2 mi SW 17.3 mph - N/A Rain Light Rain
10:48 AM 55.4 °F 55.4 °F 100% 29.74 in 0.9 mi WSW 16.1 mph - N/A Rain Light Rain
11:25 AM 51.8 °F 51.8 °F 100% 29.77 in 0.9 mi NNW 6.9 mph - N/A Rain Rain
11:49 AM 51.8 °F 51.8 °F 100% 29.77 in 1.2 mi NW 5.8 mph - N/A Rain Rain
12:25 PM 51.8 °F 51.8 °F 100% 29.77 in 1.9 mi West 4.6 mph - N/A Rain Light Rain
1:00 PM 52 °F 52 °F 100% 29.79 in 2 mi 4.5 mph - - Rain Light Rain
1:25 PM 51.8 °F 51.8 °F 100% 29.77 in 1.2 mi WNW 5.8 mph - N/A Rain Rain
2:03 PM 51.8 °F 50.0 °F 94% 29.77 in 3.1 mi West 6.9 mph - N/A Rain Light Rain
2:25 PM 51.8 °F 51.8 °F 100% 29.77 in 3.1 mi West 6.9 mph - N/A Rain Light Rain
3:20 PM 51.8 °F 50.0 °F 94% 29.77 in 4.3 mi West 3.5 mph - N/A Rain Light Rain
3:25 PM 51.8 °F 50.0 °F 94% 29.77 in 4.3 mi West 3.5 mph - N/A Rain Light Rain
4:00 PM 51 °F 50 °F 95% 29.80 in 4 mi 4.5 mph - - Rain Light Rain
4:25 PM 50.0 °F 50.0 °F 100% 29.77 in 4.3 mi West 3.5 mph - N/A Rain Light Rain
4:47 PM 50.0 °F 50.0 °F 100% 29.77 in 4.3 mi Variable 1.2 mph - N/A Rain Light Rain
5:06 PM 50.0 °F 50.0 °F 100% 29.80 in 6.2 mi Variable 1.2 mph - N/A   Mostly Cloudy
5:14 PM 50.0 °F 50.0 °F 100% 29.77 in 6.2 mi Calm Calm - N/A   Mostly Cloudy
5:20 PM 50.0 °F 50.0 °F 100% 29.77 in 6.2 mi Variable 1.2 mph - N/A   Mostly Cloudy
5:25 PM 50.0 °F 50.0 °F 100% 29.77 in 5.6 mi Variable 1.2 mph - N/A   Mostly Cloudy
5:46 PM 50.0 °F 50.0 °F 100% 29.77 in 4.3 mi Variable 1.2 mph - N/A   Mostly Cloudy
6:06 PM 50.0 °F 50.0 °F 100% 29.80 in - Variable 1.2 mph - N/A   Mostly Cloudy
6:12 PM 50.0 °F 50.0 °F 100% 29.80 in - Variable 1.2 mph - N/A   Mostly Cloudy
6:25 PM 50.0 °F 50.0 °F 100% 29.80 in 3.7 mi Variable 1.2 mph - N/A   Mostly Cloudy
6:33 PM 50.0 °F 50.0 °F 100% 29.80 in - Variable 1.2 mph - N/A   Mostly Cloudy
7:00 PM 51 °F 50 °F 96% 29.80 in 3 mi 2.2 mph - - Rain Light Rain
7:23 PM 50.0 °F 50.0 °F 100% 29.77 in - Variable 1.2 mph - N/A   Overcast
7:25 PM 50.0 °F 50.0 °F 100% 29.77 in - Variable 1.2 mph - N/A   Mostly Cloudy
8:25 PM 50.0 °F 50.0 °F 100% 29.77 in 1.7 mi Variable 1.2 mph - N/A   Mostly Cloudy
8:41 PM 50.0 °F 50.0 °F 100% 29.77 in 0.9 mi Variable 2.3 mph - N/A   Mostly Cloudy
8:55 PM 50.0 °F 50.0 °F 100% 29.77 in 0.4 mi Variable 1.2 mph - N/A   Mostly Cloudy
9:25 PM 50.0 °F 50.0 °F 100% 29.80 in 0.5 mi Variable 2.3 mph - N/A   Unknown
9:46 PM 50.0 °F 50.0 °F 100% 29.80 in 0.9 mi Variable 2.3 mph - N/A   Mostly Cloudy
9:55 PM 50.0 °F 50.0 °F 100% 29.77 in 0.7 mi Variable 1.2 mph - N/A   Mostly Cloudy
10:00 PM 50 °F 50 °F 100% 29.80 in 1 mi 2.2 mph - - Rain Rain
10:25 PM 50.0 °F 50.0 °F 100% 29.77 in - Variable 2.3 mph - N/A   Mostly Cloudy
10:42 PM 50.0 °F 50.0 °F 100% 29.80 in 0.9 mi Variable 2.3 mph - N/A   Mostly Cloudy
10:55 PM 50.0 °F 50.0 °F 100% 29.77 in - Variable 2.3 mph - N/A   Mostly Cloudy
11:07 PM 50.0 °F 50.0 °F 100% 29.80 in 0.8 mi NNW 3.5 mph - N/A   Mostly Cloudy
11:14 PM 50.0 °F 50.0 °F 100% 29.80 in - Variable 2.3 mph - N/A   Mostly Cloudy
11:25 PM 50.0 °F 50.0 °F 100% 29.80 in 0.3 mi Variable 1.2 mph - N/A   Mostly Cloudy
11:49 PM 50.0 °F 50.0 °F 100% 29.80 in 2.2 mi Variable 3.5 mph - N/A   Mostly Cloudy